Weather History for El Paso, TX

Change the Weather History Date:

Friday, September 7, 2012

  Actual Average Record
Temperature  
Mean Temperature 83 °F 78 °F  
Max Temperature 95 °F 90 °F 100 °F (2000)
Min Temperature 71 °F 66 °F 53 °F (1988)
Degree Days  
Heating Degree Days 0 0  
Month to date heating degree days 0 0  
Since 1 July heating degree days 0 0  
Cooling Degree Days 18 13  
Month to date cooling degree days 136 96  
Year to date cooling degree days 2513 2025  
Growing Degree Days 34 (Base 50)    
Moisture  
Dew Point 58 °F    
Average Humidity 52    
Maximum Humidity 79    
Minimum Humidity 24    
Precipitation  
Precipitation 0.10 in 0.06 in 1.22 in (2008)
Month to date precipitation 0.38 0.37  
Year to date precipitation 4.80 6.69  
Snow  
Snow 0.00 in - - ()
Month to date snowfall 0.0  
Since 1 July snowfall 0.0  
Since 1 September snowfall 0.0  
Snow Depth 0.00 in    
Sea Level Pressure  
Sea Level Pressure 29.82 in    
Wind  
Wind Speed 9 mph (SW)    
Max Wind Speed 23 mph    
Max Gust Speed 28 mph    
Visibility 10 miles    
Events Rain , Thunderstorm    
T = Trace of Precipitation, MM = Missing Value Source: NWS Daily Summary

Daily Weather History Graph

Daily Weather History Graph

Search for Another Location

Airport:

Trip Planner

Search our weather history database for the weather conditions in past years. The results will help you decide how hot, cold, wet, or windy it might be!

Date:

Astronomy

Sep. 07, 2012 Rise Set
Actual Time 6:44 AM MDT 7:21 PM MDT
Civil Twilight 6:20 AM MDT 7:45 PM MDT
Nautical Twilight 5:51 AM MDT 8:14 PM MDT
Astronomical Twilight 5:21 AM MDT 8:44 PM MDT
Moon 11:45 PM MDT (9/7) 1:13 PM MDT (9/7)
Length of Visible Light 13h 25m
Length of Day
12h 36m
Waning Gibbous, 58% of the Moon is Illuminated
Sep 7
Waning Gibbous
Sep 8
Last Quarter
Sep 15
New
Sep 22
First Quarter
Sep 29
Full

Hourly Weather History & Observations

Time (MDT) Temp. Heat Index Dew Point Humidity Pressure Visibility Wind Dir Wind Speed Gust Speed Precip Events Conditions
12:51 AM 79.0 °F - 61.0 °F 54% 29.82 in 10.0 mi WSW 16.1 mph - N/A   Mostly Cloudy
1:51 AM 79.0 °F - 60.1 °F 52% 29.81 in 10.0 mi WSW 12.7 mph - N/A   Mostly Cloudy
2:51 AM 80.1 °F 80.7 °F 59.0 °F 48% 29.80 in 10.0 mi WNW 18.4 mph 23.0 mph N/A   Mostly Cloudy
3:51 AM 79.0 °F - 59.0 °F 50% 29.78 in 10.0 mi West 4.6 mph - N/A   Scattered Clouds
4:51 AM 75.9 °F - 60.1 °F 58% 29.79 in 10.0 mi South 6.9 mph - N/A   Mostly Cloudy
5:51 AM 73.9 °F - 60.1 °F 62% 29.81 in 10.0 mi SSW 6.9 mph - N/A   Scattered Clouds
6:51 AM 73.9 °F - 60.1 °F 62% 29.81 in 10.0 mi South 6.9 mph - N/A   Scattered Clouds
7:51 AM 75.0 °F - 61.0 °F 62% 29.83 in 10.0 mi South 6.9 mph - N/A   Scattered Clouds
8:51 AM 80.1 °F 80.9 °F 60.1 °F 50% 29.83 in 10.0 mi Calm Calm - N/A   Partly Cloudy
9:51 AM 82.9 °F 83.3 °F 61.0 °F 47% 29.83 in 10.0 mi SSW 10.4 mph - N/A   Scattered Clouds
10:51 AM 84.9 °F 85.0 °F 61.0 °F 44% 29.84 in 10.0 mi SSW 13.8 mph - N/A   Partly Cloudy
11:51 AM 88.0 °F 87.1 °F 59.0 °F 37% 29.83 in 10.0 mi WSW 17.3 mph - N/A   Partly Cloudy
12:51 PM 90.0 °F 88.6 °F 57.0 °F 33% 29.81 in 10.0 mi SW 8.1 mph 19.6 mph N/A   Partly Cloudy
1:51 PM 90.0 °F 88.6 °F 57.0 °F 33% 29.78 in 10.0 mi SW 8.1 mph - N/A   Partly Cloudy
2:51 PM 93.9 °F 91.7 °F 54.0 °F 26% 29.74 in 10.0 mi SSW 8.1 mph - N/A   Partly Cloudy
3:51 PM 93.9 °F 91.7 °F 54.0 °F 26% 29.71 in 10.0 mi SW 8.1 mph - N/A   Scattered Clouds
4:51 PM 93.0 °F 90.6 °F 53.1 °F 26% 29.71 in 10.0 mi WSW 9.2 mph 16.1 mph N/A   Scattered Clouds
5:51 PM 93.0 °F - 52.0 °F 25% 29.71 in 10.0 mi SW 5.8 mph - N/A   Scattered Clouds
6:51 PM 91.9 °F - 52.0 °F 26% 29.72 in 10.0 mi WSW 3.5 mph - N/A   Scattered Clouds
7:51 PM 90.0 °F 87.5 °F 53.1 °F 28% 29.75 in 10.0 mi SSW 3.5 mph - N/A   Mostly Cloudy
8:26 PM 84.2 °F 83.0 °F 55.4 °F 37% 30.02 in 10.0 mi East 13.8 mph 27.6 mph N/A Thunderstorm Thunderstorm
8:51 PM 81.0 °F 81.0 °F 57.0 °F 44% 29.82 in 10.0 mi East 18.4 mph 24.2 mph 0.00 in Rain , Thunderstorm Light Thunderstorms and Rain
9:26 PM 78.8 °F - 57.2 °F 47% 30.06 in 10.0 mi East 8.1 mph 20.7 mph 0.00 in Rain Light Rain
9:51 PM 75.9 °F - 61.0 °F 60% 29.88 in 10.0 mi SSW 9.2 mph - 0.00 in   Overcast
10:51 PM 73.9 °F - 64.0 °F 71% 29.91 in 9.0 mi West 11.5 mph - 0.02 in Rain Light Rain
11:51 PM 72.0 °F - 64.9 °F 78% 29.95 in 10.0 mi ESE 3.5 mph - 0.00 in Rain Light Rain